www.pogodaiklimat.ru

Погода и климат >> Архив погоды >> Сирия >> Аэропорт Басиля Эль-Асада


ПОГОДА в Аэропорту Басиля Эль-Асада

  • Прогноз погоды в Аэропорту Басиля Эль-Асада
  • Монитор погоды в Аэропорту Басиля Эль-Асада

АРХИВ ПОГОДЫ в Аэропорту Басиля Эль-Асада

Время (UTC), дата Ветер
(напр.,м/с)
 
Видим.   Явления Облачность Т
(С)
Тd
(С)
f
(%)
Тe
(С)
Тes
(С)
Комфортность P
(гПа)
Po
(гПа)
Тmin
(С)
Tmax
(С)
R
(мм)
R24
(мм)
S
(см)
12 17.01 СЗ 6 10 км 1/1 900 м
[Sc]
+12.0 -2.2 37 +10 +11 1016.6 1017.0
18 17.01 В 2 10 км 5/3 900 м
[Sc Ac trans]
+6.1 +0.5 67 +4 +4 1019.0 1019.0 +12.3
21 17.01 ЮЗ 5 10 км 8/3 900 м
[Sc Ac trans]
+11.8 +2.1 51 +10 +10 1019.8 1020.0
00 18.01 СВ 2 10 км 6/3 900 м
[Sc Ac trans]
+7.0 +2.7 74 +5 +5 1020.3 1020.0
09 18.01 С 2 10 км 3/3 900 м
[Sc]
+14.1 +1.0 41 +14 +19 1022.7 1023.0
12 18.01 З 2 10 км 1/1 900 м
[Sc]
+13.3 -1.8 35 +13 +17 1021.9 1022.0
15 18.01 СЗ 2 10 км ясно +11.0 -2.0 40 +10 +10 1022.2 1022.0
18 18.01 СВ 2 10 км ясно +6.4 +0.7 67 +4 +4 1023.1 1023.0 +14.8
00 19.01 СВ 2 10 км ясно +4.1 -1.0 69 +2 +2 1023.0 1023.0
03 19.01 СВ 2 10 км ясно +5.0 -0.2 69 +3 +3 1023.0 1023.0
06 19.01 С 2 10 км ясно +5.6 0.0 67 +3 +5 1023.2 1023.0 +3.2
09 19.01 З 2 10 км 4/0
[Ci sp]
+13.4 +1.4 44 +13 +20 1024.0 1024.0
12 19.01 З 2 10 км 9/0
[Ci sp]
+14.2 +1.1 41 +14 +18 1022.2 1022.0
15 19.01 С 2 10 км 6/0
[Ci sp]
+12.6 +3.2 53 +12 +12 1022.0 1022.0
18 19.01 В 2 10 км 4/0
[Ci sp]
+6.6 +2.3 74 +5 +5 1023.0 1023.0 +15.2
21 19.01 СВ 3 10 км 4/0
[Ci sp]
+6.0 +2.6 79 +3 +3 1023.5 1024.0
00 20.01 СВ 3 10 км ясно +6.6 +7.5 100 +3 +3 1023.4 1023.0
03 20.01 СВ 2 10 км 8/3 900 м
[Sc]
+5.4 +0.8 72 +3 +3 1022.3 1022.0
06 20.01 С 2 10 км 3/0
[Ci sp]
+6.8 +4.7 86 +5 +6 1022.8 1023.0 +3.0
12 20.01 В 3 10 км 9/1 900 м
[Sc diur, vesp Ci sp]
+15.4 +1.3 38 +15 +18 1020.7 1021.0
15 20.01 В 1 10 км 8/1 900 м
[Sc diur, vesp Ci sp]
+11.6 +1.4 50 +12 +12 1020.5 1021.0
18 20.01 ЮВ 2 15 км 8/0
[Ac und]
+10.0 +3.1 62 +9 +9 1021.0 1021.0 +15.8
21 20.01 ЮВ 4 15 км 8/0
[Ac und]
+9.0 +4.1 71 +6 +6 1021.1 1021.0
00 21.01 СВ 2 15 км 8/0
[Ac trans Ci sp]
+9.6 +0.9 55 +8 +8 1019.4 1019.0
03 21.01 СВ 2 15 км 6/0
[Ac trans Ci sp]
+7.2 +1.9 69 +5 +5 1018.4 1018.0
06 21.01 ЮВ 2 15 км 8/0
[Ac trans]
+9.2 +2.1 61 +8 +9 1019.1 1019.0 +7.2
18 21.01 СВ 2 10 км 8/0 900 м
[Ci sp]
+10.4 +1.9 56 +9 +9 1018.3 1018.0 +16.4
21 21.01 СВ 2 10 км 6/6 900 м
[Sc diur, vesp Ac trans]
+8.4 +3.3 70 +7 +7 1018.4 1018.0
00 22.01 С 4 10 км 8/1 900 м
[Sc diur, vesp Ac trans]
+7.4 +3.2 75 +4 +4 1017.4 1017.0
03 22.01 СВ 3 10 км 6/1 900 м
[Sc diur, vesp Ac trans]
+6.2 +2.9 79 +3 +3 1016.5 1017.0
09 22.01 СЗ 2 15 км 4/0
[Ac trans]
+15.4 +5.4 51 +15 +21 1017.0 1017.0
12 22.01 З 2 15 км 3/0
[Ac trans]
+18.2 +5.8 44 +19 +22 1015.8 1016.0
15 22.01 С 3 10 км 4/0
[Ac trans]
+14.8 +6.2 56 +14 +14 1016.0 1016.0
18 22.01 СВ 2 10 км 4/0
[Ac trans]
+9.2 +5.2 76 +8 +8 1017.1 1017.0 +18.4
21 22.01 С 1 10 км ясно +8.2 +4.1 75 +8 +8 1017.7 1018.0
00 23.01 СВ 2 10 км ясно +8.2 +3.6 73 +6 +6 1017.6 1018.0
03 23.01 СВ 2 10 км ясно +6.6 +2.8 77 +4 +4 1017.3 1017.0
06 23.01 С 2 10 км ясно +8.0 +3.4 73 +6 +8 1017.9 1018.0 +6.2
09 23.01 З 3 10 км ясно +17.8 +7.2 50 +18 +24 1018.3 1018.0
12 23.01 С 2 10 км ясно +17.5 +8.4 55 +18 +22 1016.7 1017.0
15 23.01 СВ 3 10 км 1/1 900 м
[Sc diur, vesp]
+15.0 +2.0 41 +14 +14 1016.1 1016.0
18 23.01 ЮЗ 2 10 км ясно +11.6 +4.0 60 +11 +11 1015.4 1015.0 +17.5
21 23.01 ЮВ 4 10 км ясно +11.0 +4.4 64 +9 +9 1014.9 1015.0
00 24.01 ЮВ 2 10 км ясно +11.0 +6.0 71 +10 +10 1013.0 1013.0
03 24.01 З 2 10 км ясно +12.0 -1.0 41 +11 +11 1011.6 1012.0
06 24.01 С 2 10 км ясно +11.6 +5.2 65 +11 +12 1011.2 1011.0 +10.0
09 24.01 ЮВ 3 10 км ясно +21.0 +1.7 28 +22 +28 комфорт 1011.2 1011.0

 

Местоположение метеостанции Аэропорт Басиля Эль-Асада (Сирия): широта 35.40 долгота 35.93 высота над уровнем моря 50 м.

В архиве по умолчанию представлена погода в Аэропорту Басиля Эль-Асада за последнюю неделю. Архивные данные за месяц целиком и за предыдущие месяцы, начиная с января 2011 года, Вы можете получить, выбрав интересующий диапазон дат из раскрывающегося списка и нажав кнопку "Ввод!".


*Определитесь, кто Вы:
робот инопланетянин человек

Внимание! Время в таблицах - всемирное. Для получения местного времени необходимо прибавить поправку, которая равна 2 ч.

Смотрите также архив погоды в соседних городах и на ближайших метеорологических станциях:

Погода в Латакии (Сирия) (20 км)
Погода в Сафире (Сирия) (67 км)
Погода в Хаме (Сирия) (81 км)
Погода в Триполи (Ливан) (107 км)
Погода в Искендеруне (Турция) (133 км)
Погода в Ризокарпасо (Кипр) (142 км)
Погода в Алеппо (Сирия) (144 км)
Погода в Эн-Набке (Сирия) (169 км)
Погода в Гиалусе (Кипр) (174 км)
Погода в Хоуч-аль-Омаре (Ливан) (176 км)

Пояснения к столбцам:

Ветер - указаны скорость ветра в м/с - средняя за 10 мин, порывы в срок и между сроками (в фигурных скобках) и направление, откуда дует ветер: С - северный, СВ - северо-восточный, В - восточный, ЮВ - юго-восточный, Ю - южный, ЮЗ - юго-западный, З - западный, СЗ - северо-западный.
Видимость - горизонтальная дальность видимости в метрах или километрах. При видимости от 1 до 10 км при отсутствии осадков обычно наблюдается дымка, при ухудшении видимости до 1 км и менее - туман. В сухую погоду видимость может ухудшаться дымом, пылью или мглою.
Явления - указаны атмосферные явления, наблюдавшиеся в срок или в последний час перед сроком; фигурными скобками обозначены явления, наблюдавшиеся между сроками (за 1-3 часа до срока); квадратными скобками обозначены град или гололедные отложения с указанием их диаметра в мм.
Облачность - указаны через наклонную черту общая и нижняя облачность в баллах и высота нижней границы облаков в метрах; квадратными скобками обозначены формы облаков: Ci - перистые, Cs - перисто-слоистые, Cc - перисто-кучевые, Ac - высококучевые, As - высокослоистые, Sc - слоисто-кучевые, Ns - слоисто-дождевые, Cu - кучевые, Cb - кучево-дождевые. Подробнее классификацию облаков см. в Атласе облаков (PDF).
T - Температура воздуха - температура, измеренная на высоте 2 м над землей.
Td - Температура точки росы - температура, при понижении до которой содержащийся в воздухе водяной пар достигнет насыщения.
f - Относительная влажность воздуха - влажноcть воздуха, измеренная на высоте 2 м над землей.
Te - Эффективная температура - температура, которую ощущает одетый по сезону человек в тени. Характеристика душности погоды. При расчете учитывается влияние влажности воздуха и скорости ветра на теплоощущения человека.
Tes - Эффективная температура на солнце - температура, которую ощущает человек, с поправкой на солнечный нагрев. Характеристика знойности погоды. Зависит от высоты солнца над горизонтом, облачности и скорости ветра. Ночью, в пасмурную погоду, а также при ветре 12 м/с и более поправка равна нулю.
P - Атмосферное давление - приведенное к уровню моря атмосферное давление.
Po - Атмосферное давление - измеренное на уровне метеостанции атмосферное давление.
Tmin - Минимальная температура - минимум температуры воздуха на высоте 2 м над землей.
Tmax - Максимальная температура - максимум температуры воздуха на высоте 2 м над землей.
R - Количество осадков - Количество выпавших осадков за период времени, мм. При наведении курсора мыши на число - период времени, за который выпало указанное количество осадков.
R24 - Количество осадков - Количество выпавших осадков за 24 часа, мм.
S - Снежный покров - Высота снежного покрова, см. При наведении курсора мыши на число - состояние снежного покрова и степень покрытия местности в баллах.